Regional Weather Roundup
Issued by NWS Huntsville, AL

Home | Current Version | Previous Version | Text Only | Print | Product List | Glossary On
Versions: 1 2 3 4 5 6 7 8 9 10 11 12 13 14 15 16 17 18 19 20 21 22 23 24 25 26 27 28 29 30 31 32 33 34 35 36 37 38 39 40 41 42 43 44 45 46 47 48 49 50
000
ASUS44 KHUN 311410
RWRHUN

WEATHER ROUNDUP FOR THE TENNESSEE VALLEY
NATIONAL WEATHER SERVICE HUNTSVILLE AL
900 AM CDT THU JUL 31 2014

ALZ001>004-311500-
NORTHWEST ALABAMA

CITY           SKY/WX    TMP DP  RH WIND       PRES   REMARKS
SHOALS AIRPORT CLOUDY    71  62  73 S5        30.11S
SHOALS TVA RES   N/A     70 N/A N/A MISG        N/A
$$

ALZ005>007-016-311500-
NORTH CENTRAL ALABAMA

CITY           SKY/WX    TMP DP  RH WIND       PRES   REMARKS
DECATUR AP     CLOUDY    69  62  78 CALM      30.10S
HUNTSVILLE AP  CLOUDY    72  62  71 CALM      30.10R
HUN NWS/UAH      N/A     70  59  67 NE5         N/A
MERIDIANVILLE  CLOUDY    68  61  77 CALM      30.11R
REDSTONE ARSN  SUNNY     70  61  73 CALM      30.10S
VINEMONT AP    FAIR      68  63  83 CALM      30.12S
$$

ALZ008>010-311500-
NORTHEAST ALABAMA

CITY           SKY/WX    TMP DP  RH WIND       PRES   REMARKS
ALBERTVILLE    CLOUDY    70  64  83 NE3       30.09S
FORT PAYNE     CLOUDY    68  55  64 NE5       30.09F
SCOTTSBORO AP  CLOUDY    66  63  88 NE6       30.10F
SCOTTSBORO HCN   N/A     66 N/A N/A MISG        N/A
VALLEY HEAD      N/A     66 N/A N/A MISG        N/A
$$

TNZ076-096-097-311500-
SOUTHEASTERN MIDDLE TENNESSEE

CITY           SKY/WX    TMP DP  RH WIND       PRES   REMARKS
FAYETTEVILLE   SUNNY     66  61  82 NE9       30.11S
TULLAHOMA      SUNNY     66  61  82 NE3       30.13S
WINCHESTER     SUNNY     64  61  88 CALM      30.12S
$$

...SURROUNDING SITES...

CITY           SKY/WX    TMP DP  RH WIND       PRES   REMARKS
ATLANTA        CLOUDY    73  66  78 E7        30.07S
ANNISTON       CLOUDY    71  59  65 CALM      30.08R
BIRMINGHAM     CLOUDY    74  58  57 N6        30.09S
CHATTANOOGA    CLOUDY    70  61  73 N6        30.10S
CORINTH        CLOUDY    68  64  88 CALM      30.10S
DALTON         CLOUDY    64  63  94 CALM      30.10S
GADSDEN        CLOUDY    68  59  73 N5        30.08S
GOLDEN TRNGL   PTSUNNY   72  63  73 N6        30.10R
HALEYVILLE     FAIR      71  64  78 N5        30.13R
JACKSON TN     CLOUDY    72  65  78 CALM      30.11S
LEWISBURG      FAIR      66  60  81 CALM      30.12R
MEMPHIS        CLOUDY    72  66  83 NW8       30.11R
MURFREESBORO   FAIR      66  62  87 CALM      30.12R
NASHVILLE      PTSUNNY   72  60  66 E5        30.12S
ROME           CLOUDY    69  60  73 N3        30.09R
SAVANNAH       PTSUNNY   70  64  83 CALM      30.11S
TUPELO         CLOUDY    73  63  70 CALM      30.09S
TUSCALOOSA     CLOUDY    76  62  62 N3        30.07S
$$

...GULF COAST WEATHER...

CITY           SKY/WX    TMP DP  RH WIND       PRES   REMARKS
GULFPORT       MOSUNNY   81  62  52 NE3       30.05R
PASCAGOULA     MOSUNNY   74  64  71 N5        30.05R
MOBILE         PTSUNNY   76  63  64 N5        30.06R
GULF SHORES    SUNNY     76  64  67 CALM      30.03S
PENSACOLA      PTSUNNY   77  63  61 NE5       30.03R
DESTIN         SUNNY     80  61  52 NE5       30.03R
PANAMA CITY    MOSUNNY   80  63  55 NE5       30.03R
APPALACHICOLA  SUNNY     77  65  66 CALM      30.01S
$$




USA.gov is the U.S. government's official web portal to all federal, state and local government web resources and services.